STARLINK-36918

Last updated on Fri Mar 27 2026 00:02:06 GMT+0000 (Coordinated Universal Time)

1 67956U 26037AA 26085.50002314 .00152291 00000+0 25584-2 0 9992 2 67956 43.0002 97.0207 0001425 273.8146 222.2582 15.50503735 5903
UTC large
Height (km)
Speed (km/s)
/
Latitude / Longitude
Inclination (degrees)
Orbital Period (minutes)
Azimuth
Elevation
Range (km)
Doppler Factor

Next 0 passes for location: London (51.5072 / 0.1276)

Sorry there are no passes over London.